Weather History for Glendive, MT

Change the Weather History Date:

Thursday, November 1, 2012

  Actual Average Record
Temperature  
Mean Temperature 38 °F -  
Max Temperature 42 °F 45 °F 73 °F (2008)
Min Temperature 33 °F 24 °F 8 °F (2002)
Degree Days  
Heating Degree Days 28    
Moisture  
Dew Point 34 °F    
Average Humidity 85    
Maximum Humidity 100    
Minimum Humidity 76    
Precipitation  
Precipitation 0.00 in - - ()
Sea Level Pressure  
Sea Level Pressure 29.91 in    
Wind  
Wind Speed 12 mph (ESE)    
Max Wind Speed 17 mph    
Max Gust Speed 21 mph    
Visibility 8 miles    
Events      
Averages and records for this station are not official NWS values.
T = Trace of Precipitation, MM = Missing Value Source: NWS Daily Summary

Daily Weather History Graph

Daily Weather History Graph

Search for Another Location

Airport:

Trip Planner

Search our weather history database for the weather conditions in past years. The results will help you decide how hot, cold, wet, or windy it might be!

Date:

Astronomy

Nov. 01, 2012 Rise Set
Actual Time 7:43 AM MDT 5:41 PM MDT
Civil Twilight 7:11 AM MDT 6:13 PM MDT
Nautical Twilight 6:34 AM MDT 6:49 PM MDT
Astronomical Twilight 5:59 AM MDT 7:25 PM MDT
Moon 7:32 PM MDT 10:26 AM MDT
Length of Visible Light 11h 02m
Length of Day
9h 58m
Waning Gibbous, 92% of the Moon is Illuminated
Nov 1
Waning Gibbous
Nov 6
Last Quarter
Nov 13
New
Nov 20
First Quarter
Nov 28
Full

Hourly Weather History & Observations

Time (MDT) Temp. Windchill Dew Point Humidity Pressure Visibility Wind Dir Wind Speed Gust Speed Precip Events Conditions
12:15 AM 33.8 °F 24.3 °F 32.0 °F 93% 30.05 in 1.0 mi East 13.8 mph - N/A   Overcast
12:35 AM 33.8 °F 25.3 °F 32.0 °F 93% 30.04 in 0.8 mi East 11.5 mph - N/A   Overcast
12:55 AM 33.8 °F 25.3 °F 32.0 °F 93% 30.04 in 0.8 mi East 11.5 mph - N/A   Overcast
1:15 AM 33.8 °F 24.3 °F 32.0 °F 93% 30.03 in 1.0 mi East 13.8 mph - N/A   Overcast
1:35 AM 33.8 °F 24.8 °F 33.8 °F 100% 30.02 in 1.2 mi East 12.7 mph - N/A   Overcast
1:55 AM 33.8 °F 25.8 °F 33.8 °F 100% 30.03 in 1.0 mi East 10.4 mph - N/A   Overcast
2:15 AM 35.6 °F 27.5 °F 33.8 °F 93% 30.02 in 1.8 mi East 11.5 mph - N/A   Overcast
2:35 AM 35.6 °F 26.6 °F 32.0 °F 87% 30.02 in 1.8 mi East 13.8 mph - N/A   Overcast
2:55 AM 35.6 °F 27.1 °F 33.8 °F 93% 30.00 in 2.0 mi East 12.7 mph 17.3 mph N/A   Overcast
3:15 AM 35.6 °F 27.5 °F 33.8 °F 93% 29.99 in 2.0 mi East 11.5 mph 16.1 mph N/A   Overcast
3:35 AM 35.6 °F 27.5 °F 33.8 °F 93% 29.98 in 3.0 mi East 11.5 mph - N/A   Overcast
3:55 AM 35.6 °F 26.6 °F 33.8 °F 93% 29.97 in 2.5 mi East 13.8 mph - N/A   Overcast
4:15 AM 35.6 °F 27.5 °F 32.0 °F 87% 29.97 in 4.0 mi East 11.5 mph - N/A   Overcast
4:35 AM 35.6 °F 28.0 °F 33.8 °F 93% 29.97 in 5.0 mi East 10.4 mph - N/A   Overcast
4:55 AM 35.6 °F 28.0 °F 33.8 °F 93% 29.97 in 5.0 mi East 10.4 mph - N/A   Overcast
5:15 AM 35.6 °F 27.5 °F 33.8 °F 93% 29.97 in 9.0 mi East 11.5 mph - N/A   Overcast
5:35 AM 35.6 °F 27.5 °F 33.8 °F 93% 29.96 in 10.0 mi East 11.5 mph - N/A   Overcast
5:55 AM 35.6 °F 27.5 °F 33.8 °F 93% 29.95 in 10.0 mi East 11.5 mph - N/A   Overcast
6:15 AM 35.6 °F 26.6 °F 33.8 °F 93% 29.95 in 8.0 mi East 13.8 mph - N/A   Overcast
6:35 AM 35.6 °F 26.6 °F 32.0 °F 87% 29.93 in 8.0 mi East 13.8 mph 18.4 mph N/A   Overcast
6:55 AM 35.6 °F 27.5 °F 32.0 °F 87% 29.93 in 8.0 mi East 11.5 mph - N/A   Overcast
7:15 AM 35.6 °F 27.1 °F 32.0 °F 87% 29.93 in 8.0 mi East 12.7 mph - N/A   Overcast
7:35 AM 35.6 °F 26.6 °F 32.0 °F 87% 29.92 in 10.0 mi East 13.8 mph - N/A   Overcast
8:15 AM 35.6 °F 27.1 °F 32.0 °F 87% 29.91 in 4.0 mi East 12.7 mph - N/A   Overcast
8:35 AM 35.6 °F 27.5 °F 32.0 °F 87% 29.91 in 5.0 mi East 11.5 mph - N/A   Overcast
8:55 AM 35.6 °F 28.6 °F 32.0 °F 87% 29.92 in 6.0 mi East 9.2 mph - N/A   Overcast
9:15 AM 35.6 °F 26.6 °F 32.0 °F 87% 29.92 in 10.0 mi East 13.8 mph - N/A   Overcast
9:35 AM 35.6 °F 27.1 °F 33.8 °F 93% 29.91 in 10.0 mi ESE 12.7 mph - N/A   Overcast
9:55 AM 37.4 °F 30.3 °F 32.0 °F 81% 29.91 in 10.0 mi East 10.4 mph - N/A   Overcast
10:15 AM 37.4 °F 29.3 °F 33.8 °F 87% 29.90 in 10.0 mi ESE 12.7 mph - N/A   Overcast
10:35 AM 37.4 °F 29.8 °F 33.8 °F 87% 29.90 in 10.0 mi East 11.5 mph - N/A   Overcast
10:55 AM 37.4 °F 28.5 °F 33.8 °F 87% 29.89 in 10.0 mi ESE 15.0 mph - N/A   Overcast
11:15 AM 39.2 °F 30.2 °F 33.8 °F 81% 29.89 in 10.0 mi SE 17.3 mph - N/A   Overcast
11:35 AM 39.2 °F 30.2 °F 33.8 °F 81% 29.89 in 10.0 mi SE 17.3 mph - N/A   Overcast
11:55 AM 39.2 °F 31.2 °F 33.8 °F 81% 29.88 in 10.0 mi ESE 13.8 mph - N/A   Overcast
12:15 PM 41.0 °F 32.8 °F 33.8 °F 76% 29.87 in 10.0 mi ESE 16.1 mph 20.7 mph N/A   Overcast
12:55 PM 41.0 °F 33.5 °F 33.8 °F 76% 29.86 in 10.0 mi SE 13.8 mph - N/A   Overcast
1:15 PM 41.0 °F 33.9 °F 33.8 °F 76% 29.85 in 10.0 mi ESE 12.7 mph - N/A   Overcast
1:35 PM 42.8 °F 35.8 °F 35.6 °F 76% 29.84 in 10.0 mi SE 13.8 mph 18.4 mph N/A   Overcast
1:55 PM 42.8 °F 36.6 °F 35.6 °F 76% 29.84 in 10.0 mi SE 11.5 mph - N/A   Overcast
2:15 PM 42.8 °F 36.6 °F 35.6 °F 76% 29.84 in 10.0 mi SE 11.5 mph - N/A   Overcast
2:35 PM 42.8 °F 37.5 °F 35.6 °F 76% 29.84 in 10.0 mi ESE 9.2 mph - N/A   Overcast
2:55 PM 42.8 °F 37.0 °F 35.6 °F 76% 29.84 in 10.0 mi SE 10.4 mph - N/A   Overcast
3:15 PM 42.8 °F 36.6 °F 35.6 °F 76% 29.85 in 10.0 mi SSE 11.5 mph - N/A   Overcast
3:35 PM 42.8 °F 36.6 °F 35.6 °F 76% 29.84 in 10.0 mi ESE 11.5 mph - N/A   Overcast
3:55 PM 42.8 °F 36.6 °F 35.6 °F 76% 29.84 in 10.0 mi SE 11.5 mph - N/A   Overcast
4:15 PM 42.8 °F 37.0 °F 35.6 °F 76% 29.84 in 10.0 mi ESE 10.4 mph - N/A   Overcast
4:35 PM 42.8 °F 37.0 °F 35.6 °F 76% 29.85 in 10.0 mi ESE 10.4 mph - N/A   Overcast
4:55 PM 42.8 °F 38.6 °F 35.6 °F 76% 29.84 in 10.0 mi East 6.9 mph - N/A   Overcast
5:15 PM 41.0 °F 35.8 °F 35.6 °F 81% 29.84 in 10.0 mi East 8.1 mph - N/A   Overcast
5:35 PM 41.0 °F 36.4 °F 35.6 °F 81% 29.85 in 10.0 mi ESE 6.9 mph - N/A   Overcast
5:55 PM 41.0 °F 34.3 °F 35.6 °F 81% 29.85 in 10.0 mi ESE 11.5 mph - N/A   Overcast
6:15 PM 41.0 °F 35.2 °F 35.6 °F 81% 29.85 in 10.0 mi ESE 9.2 mph - N/A   Overcast
6:35 PM 41.0 °F 36.4 °F 35.6 °F 81% 29.86 in 10.0 mi ESE 6.9 mph - N/A   Overcast
7:16 PM 39.2 °F 32.5 °F 35.6 °F 87% 29.86 in 10.0 mi East 10.4 mph - N/A   Overcast
7:35 PM 39.2 °F 33.0 °F 35.6 °F 87% 29.87 in 10.0 mi East 9.2 mph - N/A   Overcast
7:55 PM 39.2 °F 33.0 °F 35.6 °F 87% 29.87 in 10.0 mi East 9.2 mph - N/A   Overcast
8:15 PM 39.2 °F 33.0 °F 35.6 °F 87% 29.86 in 10.0 mi East 9.2 mph - N/A   Overcast
8:35 PM 39.2 °F 32.0 °F 35.6 °F 87% 29.85 in 10.0 mi East 11.5 mph - N/A   Overcast
8:55 PM 39.2 °F 32.5 °F 35.6 °F 87% 29.86 in 10.0 mi East 10.4 mph - N/A   Overcast
9:15 PM 39.2 °F 35.0 °F 35.6 °F 87% 29.86 in 10.0 mi East 5.8 mph - N/A   Overcast
9:35 PM 39.2 °F 33.0 °F 35.6 °F 87% 29.86 in 10.0 mi ESE 9.2 mph - N/A   Overcast
9:55 PM 39.2 °F 34.2 °F 35.6 °F 87% 29.87 in 10.0 mi East 6.9 mph - N/A   Overcast
10:15 PM 39.2 °F 34.2 °F 33.8 °F 81% 29.88 in 10.0 mi East 6.9 mph - N/A   Overcast
10:35 PM 39.2 °F 33.6 °F 33.8 °F 81% 29.88 in 10.0 mi ESE 8.1 mph - N/A   Overcast
10:55 PM 39.2 °F 33.6 °F 33.8 °F 81% 29.88 in 10.0 mi ESE 8.1 mph - N/A   Overcast
11:15 PM 39.2 °F 35.0 °F 33.8 °F 81% 29.89 in 10.0 mi ESE 5.8 mph - N/A   Overcast
11:35 PM 39.2 °F 35.9 °F 35.6 °F 87% 29.89 in 10.0 mi East 4.6 mph - N/A   Overcast
11:55 PM 39.2 °F 35.0 °F 33.8 °F 81% 29.90 in 10.0 mi East 5.8 mph - N/A   Overcast